Altus AFB, OK

9:46 PM CST on February 25, 2018 (GMT -0600)
Altus Air Force Base

Weather History for KLTS - March, 2012

Change the Weather History Date:

Saturday, March 3, 2012

  Actual Average Record
Temperature  
Mean Temperature 44 °F -  
Max Temperature 56 °F 58 °F 80 °F (1997)
Min Temperature 33 °F 32 °F 7 °F (2014)
Degree Days  
Heating Degree Days 20    
Moisture  
Dew Point 18 °F    
Average Humidity 36    
Maximum Humidity 59    
Minimum Humidity 19    
Precipitation  
Precipitation 0.00 in - - ()
Sea Level Pressure  
Sea Level Pressure 30.11 in    
Wind  
Wind Speed 8 mph (NW)    
Max Wind Speed 15 mph    
Max Gust Speed -    
Visibility 10 miles    
Events      
Averages and records for this station are not official NWS values.
T = Trace of Precipitation, MM = Missing Value Source: NWS Daily Summary

Daily Weather History Graph

Daily Weather History Graph

Search for Another Location

Airport or City:

Trip Planner

Search our weather history database for the weather conditions in past years. The results will help you decide how hot, cold, wet, or windy it might be!

Date:

Astronomy

Mar. 03, 2012 Rise Set
Actual Time 7:02 AM CST 6:35 PM CST
Civil Twilight 6:37 AM CST 7:00 PM CST
Nautical Twilight 6:08 AM CST 7:29 PM CST
Astronomical Twilight 5:39 AM CST 7:58 PM CST
Moon 1:56 PM CST (3/3) 3:31 AM CST (3/3)
Length of Visible Light 12h 22m
Length of Day
11h 32m
Waxing Gibbous, 75% of the Moon is Illuminated
Mar 3
Waxing Gibbous
Mar 8
Full
Mar 14
Last Quarter
Mar 22
New
Mar 30
First Quarter

Hourly Weather History & Observations

Time (CST) Temp. Windchill Dew Point Humidity Pressure Visibility Wind Dir Wind Speed Gust Speed Precip Events Conditions
12:55 AM 43.7 °F 40.3 °F 22.8 °F 44% 30.02 in 10.0 mi NW 5.8 mph - N/A   Clear
1:55 AM 40.1 °F 36.9 °F 26.6 °F 59% 30.03 in 10.0 mi NNW 4.6 mph - N/A   Mostly Cloudy
2:55 AM 42.4 °F 36.5 °F 25.0 °F 50% 30.02 in 10.0 mi NNW 10.4 mph - N/A   Partly Cloudy
3:55 AM 43.2 °F 38.4 °F 20.3 °F 40% 30.03 in 10.0 mi NW 8.1 mph - N/A   Scattered Clouds
4:55 AM 37.6 °F 30.0 °F 21.6 °F 52% 30.06 in 10.0 mi NW 11.5 mph - N/A   Partly Cloudy
5:55 AM 36.1 °F 31.4 °F 21.2 °F 55% 30.09 in 10.0 mi NW 5.8 mph - N/A   Mostly Cloudy
6:55 AM 34.5 °F 26.7 °F 20.3 °F 56% 30.12 in 10.0 mi NW 10.4 mph - N/A   Mostly Cloudy
7:55 AM 33.1 °F 30.0 °F 19.9 °F 59% 30.16 in 10.0 mi North 3.5 mph - N/A   Clear
8:55 AM 42.4 °F 35.0 °F 17.6 °F 37% 30.19 in 10.0 mi North 15.0 mph - N/A   Clear
9:55 AM 46.4 °F 41.5 °F 16.9 °F 31% 30.19 in 10.0 mi NNE 10.4 mph - N/A   Clear
10:55 AM 49.5 °F - 19.4 °F 31% 30.18 in 10.0 mi NE 9.2 mph - N/A   Clear
11:55 AM 52.0 °F - 17.4 °F 26% 30.18 in 10.0 mi Variable 3.5 mph - N/A   Clear
12:55 PM 53.6 °F - 15.3 °F 22% 30.15 in 10.0 mi NNW 8.1 mph - N/A   Clear
1:55 PM 54.5 °F - 15.4 °F 21% 30.12 in 10.0 mi NW 10.4 mph - N/A   Clear
2:55 PM 55.6 °F - 15.4 °F 21% 30.09 in 10.0 mi Variable 3.5 mph - N/A   Scattered Clouds
3:55 PM 56.1 °F - 15.1 °F 20% 30.08 in 10.0 mi WSW 12.7 mph - N/A   Mostly Cloudy
4:55 PM 56.7 °F - 14.2 °F 19% 30.08 in 10.0 mi West 13.8 mph - N/A   Scattered Clouds
5:55 PM 55.6 °F - 14.2 °F 20% 30.08 in 10.0 mi West 9.2 mph - N/A   Clear
6:55 PM 52.3 °F - 16.0 °F 24% 30.09 in 10.0 mi West 6.9 mph - N/A   Clear
7:55 PM 48.9 °F - 16.7 °F 28% 30.11 in 10.0 mi West 10.4 mph - N/A   Clear
8:55 PM 44.8 °F 41.0 °F 16.3 °F 32% 30.12 in 10.0 mi NNW 6.9 mph - N/A   Clear
9:55 PM 42.1 °F 39.2 °F 15.1 °F 34% 30.12 in 10.0 mi WNW 4.6 mph - N/A   Clear
10:55 PM 41.7 °F 38.8 °F 14.7 °F 34% 30.12 in 10.0 mi WNW 4.6 mph - N/A   Clear
11:55 PM 37.6 °F 34.0 °F 16.0 °F 41% 30.12 in 10.0 mi West 4.6 mph - N/A   Clear